This is the latest recevied weather packets stored in our database for station/object W0AKO. If no packets are shown the sender has not sent any weather packets the latest 10 day(s).
| Time | Temp. | Humidity | Pressure | Rain* | Wind** | Luminosity | Snow |
|---|---|---|---|---|---|---|---|
| 1777184513 | 18.89° C | 10% | 1006 hPa | 0 mm | - | 0 W/m² | - |
| 1777184208 | 18.89° C | 10% | 1006.2 hPa | 0 mm | - | 0 W/m² | - |
| 1777183904 | 18.89° C | 10% | 1006.2 hPa | 0 mm | - | 0 W/m² | - |
| 1777183600 | 18.33° C | 10% | 1006.2 hPa | 0 mm | - | 0 W/m² | - |
| 1777183294 | 18.33° C | 10% | 1006 hPa | 0 mm | - | 0 W/m² | - |
| 1777182991 | 18.33° C | 10% | 1006.1 hPa | 0 mm | - | 0 W/m² | - |
| 1777182687 | 18.33° C | 10% | 1006 hPa | 0 mm | - | 0 W/m² | - |
| 1777182383 | 18.33° C | 10% | 1006 hPa | 0 mm | - | 0 W/m² | - |
| 1777182080 | 18.33° C | 10% | 1006.1 hPa | 0 mm | - | 0 W/m² | - |
| 1777181776 | 18.33° C | 10% | 1006.5 hPa | 0 mm | - | 0 W/m² | - |
| 1777181471 | 18.89° C | 10% | 1006.4 hPa | 0 mm | - | 0 W/m² | - |
| 1777181166 | 17.78° C | 10% | 1006.2 hPa | 0 mm | - | 0 W/m² | - |
| 1777180861 | 17.78° C | 10% | 1006.6 hPa | 0 mm | - | 0 W/m² | - |
| 1777180558 | 18.33° C | 10% | 1006.6 hPa | 0 mm | - | 0 W/m² | - |
| 1777180253 | 18.33° C | 10% | 1006.6 hPa | 0 mm | - | 0 W/m² | - |
| 1777179950 | 18.33° C | 10% | 1006.6 hPa | 0 mm | - | 0 W/m² | - |
| 1777179646 | 17.78° C | 10% | 1006.7 hPa | 0 mm | - | 0 W/m² | - |
| 1777179346 | 17.78° C | 10% | 1006.7 hPa | 0 mm | - | 0 W/m² | - |
| 1777179045 | 17.78° C | 10% | 1006.5 hPa | 0 mm | - | 0 W/m² | - |
| 1777178743 | 17.78° C | 10% | 1006.5 hPa | 0 mm | - | 0 W/m² | - |
| 1777178439 | 17.78° C | 10% | 1006.8 hPa | 0 mm | - | 0 W/m² | - |
| 1777178135 | 17.78° C | 10% | 1007.1 hPa | 0 mm | - | 0 W/m² | - |
| 1777177833 | 17.78° C | 10% | 1007 hPa | 0 mm | - | 0 W/m² | - |
| 1777177529 | 17.78° C | 10% | 1007.1 hPa | 0 mm | - | 0 W/m² | - |
| 1777177225 | 17.78° C | 10% | 1007.1 hPa | 0 mm | - | 0 W/m² | - |
* Rain latest hour (hover to see other rain measurements)
** Current wind speed in m/s (hover to see current wind gust speed)